RH
17 18 19 20 21 18 16 19 23 24 21 17 17 16 15 19 19 17 18 19 23 25 29 29 25 26 25 26 33 38 39 47 61 61 65 64 61 65 69 64 66 62 63 53 49
17 18 19 20 20 17 17 19 24 23 21 18 17 16 16 19 21 20 21 20 22 26 31 31 25 25 26 26 38 40 38 41 58 69 64 68 63 59 63 61 66 58 52 39 41
18 18 19 20 18 17 18 21 23 21 19 18 19 16 16 21 23 23 24 21 22 31 31 26 23 24 23 32 42 42 40 42 41 60 61 56 60 54 44 46 47 42 47 35 42
19 19 20 20 17 18 21 22 20 18 18 19 19 15 18 22 28 27 24 28 30 27 25 23 21 22 21 31 38 41 40 41 46 61 61 66 51 43 40 32 28 35 39 32 33
20 20 21 20 17 21 23 21 18 19 22 22 20 15 20 22 28 28 27 27 26 25 23 24 23 24 28 33 37 39 45 49 55 59 59 56 54 35 28 23 21 27 33 31 29
21 21 22 18 18 21 20 19 19 21 24 22 19 18 20 26 28 27 29 28 27 25 27 29 31 33 38 40 41 41 45 57 53 49 52 52 38 38 32 30 27 29 31 27 25
22 21 22 18 19 21 19 20 22 22 24 23 20 20 24 30 29 30 30 29 28 33 40 41 40 42 42 44 41 42 40 45 47 48 42 38 32 31 34 38 39 35 32 29 28
22 22 21 20 21 20 20 24 25 25 25 24 23 23 28 30 27 31 31 31 32 42 45 44 42 44 44 39 37 34 33 38 41 39 33 28 24 29 34 40 40 41 41 39 39
22 23 20 20 21 20 24 27 26 27 28 25 27 28 31 34 29 32 33 31 38 45 45 44 42 43 43 38 32 31 33 31 31 30 26 22 21 25 35 37 44 46 45 44 48
23 23 21 21 22 20 26 26 26 26 27 27 31 35 34 37 33 33 31 32 44 44 48 47 43 39 38 35 32 29 26 24 23 22 21 20 25 27 35 40 47 48 47 46 46
23 24 23 23 21 23 25 27 30 30 27 29 31 37 42 38 34 34 34 36 43 47 46 43 40 36 34 30 29 27 33 30 27 25 26 26 32 35 41 44 43 39 41 44 48
24 25 24 24 21 24 25 30 29 34 32 29 34 42 42 38 33 33 36 37 44 48 41 42 42 37 35 31 29 28 32 40 39 32 32 34 34 33 34 37 39 41 42 44 48
25 27 26 24 21 23 23 29 33 40 39 30 38 42 40 36 36 31 36 42 41 41 46 44 39 39 37 36 35 36 35 40 35 39 38 36 35 36 35 37 36 38 42 44 50
26 29 27 23 22 22 26 35 39 44 37 30 40 42 38 34 30 29 34 44 40 46 39 42 37 34 33 35 37 38 35 30 29 34 38 34 34 35 36 36 36 40 43 46 48
28 29 28 24 22 24 35 41 45 47 40 33 38 39 35 34 30 31 30 44 42 39 42 41 40 37 38 38 37 42 41 41 38 36 33 31 29 38 34 34 36 37 42 44 46
31 31 29 24 23 32 42 47 54 52 44 29 33 33 32 30 28 29 29 33 41 41 44 43 43 40 37 38 39 42 40 35 37 37 34 29 26 24 31 29 33 38 45 45 51
33 32 30 24 31 41 48 53 53 47 32 28 28 30 29 28 29 27 29 32 39 43 46 43 40 37 35 36 36 40 36 32 33 34 31 31 28 23 27 30 36 41 46 50 52
35 34 30 25 40 50 52 55 48 32 31 27 27 28 28 27 28 26 29 32 35 37 44 37 36 31 34 37 35 32 30 30 28 32 31 33 30 32 31 32 36 44 48 49 49
39 35 30 30 50 57 56 59 42 33 31 27 29 28 28 28 27 27 31 34 33 32 32 33 35 33 33 33 31 32 30 31 34 40 38 27 26 28 29 30 32 39 44 47 48
43 37 31 39 56 62 60 50 38 34 28 28 24 25 28 28 25 24 28 31 32 31 32 33 37 33 32 31 32 31 31 32 33 36 27 21 22 21 24 27 30 35 39 43 46
49 44 35 44 65 68 57 45 33 33 33 27 23 27 29 33 29 26 30 31 31 32 32 31 31 34 33 32 31 33 32 31 31 30 25 22 18 20 22 23 27 32 36 40 45
54 46 39 50 74 72 57 44 32 33 38 29 26 26 25 27 27 24 24 27 29 28 29 28 30 35 34 34 34 29 31 30 27 26 32 31 19 17 19 21 25 29 35 38 43
58 54 49 55 75 73 58 38 35 36 36 31 27 24 23 24 28 27 25 24 26 26 25 25 31 37 36 35 38 34 32 29 27 27 28 38 17 17 19 21 23 27 33 37 41
63 56 58 61 75 68 51 38 37 46 39 32 28 32 30 31 31 36 34 30 30 29 31 31 32 32 35 36 34 35 33 30 27 31 23 21 14 17 19 19 22 24 29 35 39
64 54 45 65 74 59 48 36 41 50 42 33 30 32 33 37 38 40 42 34 33 33 35 35 36 33 33 33 34 31 30 29 28 23 24 15 15 15 18 18 22 23 28 34 40
62 55 53 60 65 52 49 42 48 51 41 34 33 33 32 32 31 40 42 43 40 44 42 40 40 36 34 35 35 33 29 27 26 23 23 21 18 19 20 21 23 25 29 33 38
62 49 46 69 58 45 43 47 51 52 45 38 38 37 36 36 35 36 45 45 44 42 42 43 42 39 35 34 33 38 28 25 24 23 24 25 22 23 21 23 26 28 29 33 39